• In Österreich
  • Länderverzeichnis
  • Für 7 Tage
  • Wassertemperatur
  • Satellitenkarten
  • Wetterkarte
  • News
  • Widgets
  • user-avatar
    Anmelden

    Stündliche Wetter Brzesko

    Heute, 18 Juli, Mittwoch

    Zeit Temperatur Niederschläge Wind Luftdruck Luftfeuchtigkeit
    00:00 +18°C° 0,2 mm 4 m/S 729 mmHg 95%
    01:00 +18°C° 0 mm 3 m/S 729 mmHg 96%
    02:00 +18°C° 0,4 mm 3 m/S 729 mmHg 96%
    03:00 +18°C° 0,4 mm 3 m/S 729 mmHg 96%
    04:00 +18°C° 0,4 mm 3 m/S 729 mmHg 96%
    05:00 +18°C° 0,8 mm 3 m/S 729 mmHg 96%
    06:00 +18°C° 0,8 mm 4 m/S 729 mmHg 95%
    07:00 +18°C° 0 mm 4 m/S 729 mmHg 96%
    08:00 +19°C° 0,7 mm 4 m/S 729 mmHg 94%
    09:00 +19°C° 0,7 mm 4 m/S 729 mmHg 93%
    10:00 +20°C° 0,7 mm 4 m/S 730 mmHg 92%
    11:00 +20°C° 0,7 mm 4 m/S 730 mmHg 91%
    12:00 +20°C° 0,7 mm 4 m/S 730 mmHg 91%
    13:00 +20°C° 0,7 mm 5 m/S 730 mmHg 90%
    14:00 +21°C° 1,1 mm 5 m/S 730 mmHg 90%
    15:00 +21°C° 1,1 mm 5 m/S 731 mmHg 90%
    16:00 +21°C° 1,1 mm 6 m/S 731 mmHg 89%
    17:00 +21°C° 0,6 mm 6 m/S 731 mmHg 90%
    18:00 +20°C° 0,6 mm 6 m/S 731 mmHg 91%
    19:00 +20°C° 0,6 mm 6 m/S 731 mmHg 92%
    20:00 +20°C° 0,8 mm 5 m/S 731 mmHg 93%
    21:00 +20°C° 0,8 mm 5 m/S 732 mmHg 94%
    22:00 +19°C° 0,8 mm 5 m/S 732 mmHg 94%
    23:00 +19°C° 0,3 mm 5 m/S 732 mmHg 94%

    Morgen, 19 Juli, Donnerstag

    Zeit Temperatur Niederschläge Wind Luftdruck Luftfeuchtigkeit
    00:00 +19°C° 0,3 mm 4 m/S 732 mmHg 95%
    01:00 +19°C° 0,3 mm 4 m/S 732 mmHg 95%
    02:00 +19°C° 0,3 mm 4 m/S 732 mmHg 95%
    03:00 +19°C° 0,3 mm 4 m/S 733 mmHg 95%
    04:00 +18°C° 0,3 mm 4 m/S 733 mmHg 95%
    05:00 +18°C° 0,3 mm 4 m/S 733 mmHg 95%
    06:00 +18°C° 0,3 mm 3 m/S 733 mmHg 95%
    07:00 +18°C° 0,3 mm 3 m/S 733 mmHg 94%
    08:00 +19°C° 0,2 mm 3 m/S 733 mmHg 94%
    09:00 +19°C° 0,2 mm 4 m/S 734 mmHg 93%
    10:00 +19°C° 0,2 mm 4 m/S 734 mmHg 93%
    11:00 +19°C° 0,2 mm 4 m/S 734 mmHg 92%
    12:00 +19°C° 0,2 mm 4 m/S 734 mmHg 91%
    13:00 +19°C° 0,2 mm 4 m/S 734 mmHg 91%
    14:00 +19°C° 0,1 mm 4 m/S 734 mmHg 91%
    15:00 +19°C° 0,1 mm 4 m/S 734 mmHg 90%
    16:00 +20°C° 0,1 mm 4 m/S 734 mmHg 90%
    17:00 +19°C° 0,1 mm 3 m/S 734 mmHg 91%
    18:00 +19°C° 0,1 mm 3 m/S 734 mmHg 91%
    19:00 +19°C° 0,1 mm 3 m/S 734 mmHg 92%
    20:00 +19°C° 0,2 mm 3 m/S 734 mmHg 93%
    21:00 +19°C° 0,2 mm 3 m/S 735 mmHg 94%
    22:00 +18°C° 0,2 mm 3 m/S 735 mmHg 95%
    23:00 +18°C° 0,2 mm 3 m/S 735 mmHg 96%

    übermorgen, 20 Juli, Freitag

    Zeit Temperatur Niederschläge Wind Luftdruck Luftfeuchtigkeit
    00:00 +18°C° 0,2 mm 3 m/S 735 mmHg 96%
    01:00 +18°C° 0,2 mm 3 m/S 735 mmHg 97%
    02:00 +18°C° 0,2 mm 3 m/S 735 mmHg 97%
    03:00 +18°C° 0,2 mm 3 m/S 735 mmHg 97%
    04:00 +18°C° 0,2 mm 3 m/S 735 mmHg 97%
    05:00 +18°C° 0,2 mm 3 m/S 735 mmHg 96%
    06:00 +18°C° 0,2 mm 3 m/S 735 mmHg 96%
    07:00 +18°C° 0,2 mm 3 m/S 735 mmHg 95%
    08:00 +18°C° 0 mm 3 m/S 735 mmHg 93%
    09:00 +19°C° 0 mm 3 m/S 735 mmHg 90%
    10:00 +20°C° 0 mm 3 m/S 735 mmHg 88%
    11:00 +21°C° 0,1 mm 3 m/S 735 mmHg 81%
    12:00 +22°C° 0,1 mm 3 m/S 735 mmHg 74%
    13:00 +25°C° 0,1 mm 3 m/S 735 mmHg 67%
    14:00 +25°C° 0,1 mm 3 m/S 735 mmHg 65%
    15:00 +26°C° 0,1 mm 3 m/S 735 mmHg 63%
    16:00 +26°C° 0,1 mm 3 m/S 734 mmHg 62%
    17:00 +25°C° 0 mm 3 m/S 734 mmHg 66%
    18:00 +24°C° 0 mm 2 m/S 734 mmHg 71%
    19:00 +23°C° 0 mm 2 m/S 734 mmHg 76%
    20:00 +21°C° 0 mm 1 m/S 734 mmHg 79%
    21:00 +20°C° 0 mm 1 m/S 735 mmHg 82%
    22:00 +19°C° 0 mm 1 m/S 735 mmHg 86%
    23:00 +19°C° 0 mm 1 m/S 735 mmHg 86%

    21 Juli, Samstag

    Zeit Temperatur Niederschläge Wind Luftdruck Luftfeuchtigkeit
    00:00 +18°C° 0 mm 1 m/S 734 mmHg 87%
    01:00 +18°C° 0 mm 1 m/S 734 mmHg 88%
    02:00 +16°C° 0 mm 1 m/S 734 mmHg 89%
    03:00 +16°C° 0 mm 1 m/S 734 mmHg 90%
    04:00 +16°C° 0 mm 1 m/S 734 mmHg 90%
    05:00 +18°C° 0 mm 1 m/S 734 mmHg 85%
    06:00 +18°C° 0 mm 0 m/S 734 mmHg 80%
    07:00 +20°C° 0 mm 0 m/S 734 mmHg 75%
    08:00 +21°C° 0 mm 0 m/S 734 mmHg 67%
    09:00 +23°C° 0 mm 0 m/S 734 mmHg 60%
    10:00 +25°C° 0 mm 0 m/S 734 mmHg 52%
    11:00 +25°C° 0 mm 0 m/S 734 mmHg 50%
    12:00 +28°C° 0 mm 1 m/S 734 mmHg 47%
    13:00 +29°C° 0 mm 1 m/S 733 mmHg 44%
    14:00 +29°C° 0 mm 1 m/S 733 mmHg 45%
    15:00 +28°C° 0 mm 1 m/S 733 mmHg 46%
    16:00 +28°C° 0 mm 1 m/S 733 mmHg 47%
    17:00 +27°C° 0,1 mm 1 m/S 732 mmHg 53%
    18:00 +25°C° 0,1 mm 1 m/S 732 mmHg 59%
    19:00 +24°C° 0,1 mm 1 m/S 732 mmHg 65%
    20:00 +23°C° 0,1 mm 1 m/S 732 mmHg 67%
    21:00 +22°C° 0,1 mm 1 m/S 732 mmHg 70%
    22:00 +20°C° 0,1 mm 2 m/S 732 mmHg 72%
    23:00 +20°C° 0 mm 2 m/S 732 mmHg 74%

    22 Juli, Sonntag

    Zeit Temperatur Niederschläge Wind Luftdruck Luftfeuchtigkeit
    00:00 +19°C° 0 mm 2 m/S 731 mmHg 76%
    01:00 +19°C° 0 mm 2 m/S 731 mmHg 78%
    02:00 +18°C° 0 mm 2 m/S 731 mmHg 80%
    03:00 +18°C° 0 mm 2 m/S 731 mmHg 83%
    04:00 +18°C° 0 mm 2 m/S 731 mmHg 86%
    05:00 +19°C° 0 mm 2 m/S 731 mmHg 83%
    06:00 +20°C° 0 mm 2 m/S 731 mmHg 80%
    07:00 +21°C° 0 mm 2 m/S 731 mmHg 77%
    08:00 +24°C° 0,4 mm 2 m/S 731 mmHg 73%
    09:00 +25°C° 0,4 mm 3 m/S 730 mmHg 69%
    10:00 +26°C° 0,4 mm 3 m/S 730 mmHg 65%
    11:00 +26°C° 0,9 mm 3 m/S 730 mmHg 66%
    12:00 +26°C° 0,9 mm 4 m/S 730 mmHg 68%
    13:00 +26°C° 0,9 mm 4 m/S 730 mmHg 69%
    14:00 +25°C° 1,4 mm 3 m/S 730 mmHg 73%
    15:00 +24°C° 1,4 mm 3 m/S 730 mmHg 77%
    16:00 +23°C° 1,4 mm 2 m/S 730 mmHg 82%
    17:00 +22°C° 1,6 mm 3 m/S 731 mmHg 83%
    18:00 +21°C° 1,6 mm 3 m/S 731 mmHg 85%
    19:00 +20°C° 1,6 mm 3 m/S 731 mmHg 87%
    20:00 +20°C° 1,6 mm 3 m/S 731 mmHg 87%
    21:00 +19°C° 1,6 mm 3 m/S 732 mmHg 88%
    22:00 +19°C° 1,6 mm 3 m/S 732 mmHg 89%
    23:00 +19°C° 0,4 mm 3 m/S 732 mmHg 89%

    23 Juli, Montag

    Zeit Temperatur Niederschläge Wind Luftdruck Luftfeuchtigkeit
    00:00 +18°C° 0,4 mm 3 m/S 732 mmHg 90%
    01:00 +18°C° 0,4 mm 3 m/S 733 mmHg 90%
    02:00 +18°C° 0 mm 3 m/S 733 mmHg 90%
    03:00 +18°C° 0 mm 3 m/S 733 mmHg 91%
    04:00 +17°C° 0 mm 3 m/S 734 mmHg 91%
    05:00 +18°C° 0,1 mm 3 m/S 734 mmHg 90%
    06:00 +18°C° 0,1 mm 3 m/S 734 mmHg 89%
    07:00 +18°C° 0,1 mm 3 m/S 735 mmHg 88%
    08:00 +20°C° 0,2 mm 3 m/S 735 mmHg 83%
    09:00 +21°C° 0,2 mm 3 m/S 735 mmHg 79%
    10:00 +22°C° 0,2 mm 3 m/S 735 mmHg 74%
    11:00 +24°C° 0,1 mm 3 m/S 735 mmHg 70%
    12:00 +23°C° 0,1 mm 4 m/S 735 mmHg 66%
    13:00 +25°C° 0,1 mm 4 m/S 735 mmHg 63%
    14:00 +25°C° 0 mm 4 m/S 735 mmHg 61%
    15:00 +26°C° 0 mm 4 m/S 735 mmHg 59%
    16:00 +26°C° 0 mm 4 m/S 735 mmHg 58%
    17:00 +25°C° 0 mm 4 m/S 735 mmHg 63%
    18:00 +22°C° 0 mm 3 m/S 735 mmHg 68%
    19:00 +21°C° 0 mm 3 m/S 735 mmHg 73%
    20:00 +20°C° 0 mm 2 m/S 736 mmHg 76%
    21:00 +19°C° 0 mm 2 m/S 736 mmHg 80%
    22:00 +18°C° 0 mm 2 m/S 736 mmHg 83%
    23:00 +18°C° 0 mm 2 m/S 736 mmHg 85%
    Mehr zeigen